DLH36PF EFHK-EDDH

Flight info

Callsign DLH36PF
Flight time 1h 31m
Altitude 40000
Route NUNTO Y369 REKDO DCT KOSKA DCT GIMRU T503 MICOS N850 BOGMU BOGMU3S
Aircraft A359/H-SDE2E3GHIJ3J4J5LM1ORWXY/LB1D1

Departure

Time 2026-04-23 17:42
Airport Helsinki Vantaa Airport (EFHK)

Arrival

Time 2026-04-23 19:13
Airport Hamburg Helmut Schmidt Airport (EDDH)
Time Latitude Longitude Altitude Speed Heading
2026-04-23 17:13 60.31397 24.96251 173 ft 0 kts 47°
2026-04-23 17:27 60.31398 24.96253 173 ft 3 kts 48°
2026-04-23 17:27 60.31381 24.96212 173 ft 4 kts 49°
2026-04-23 17:28 60.31365 24.96184 173 ft 3 kts 31°
2026-04-23 17:28 60.31343 24.96162 173 ft 4 kts 354°
2026-04-23 17:28 60.31325 24.96182 173 ft 4 kts 317°
2026-04-23 17:28 60.31305 24.96219 173 ft 4 kts 317°
2026-04-23 17:29 60.31286 24.96254 173 ft 2 kts 317°
2026-04-23 17:29 60.31296 24.96234 173 ft 4 kts 314°
2026-04-23 17:29 60.31301 24.96141 173 ft 4 kts 240°
2026-04-23 17:30 60.31284 24.96103 173 ft 4 kts 227°
2026-04-23 17:30 60.31247 24.96023 173 ft 4 kts 227°
2026-04-23 17:30 60.31238 24.96003 173 ft 4 kts 227°
2026-04-23 17:31 60.31219 24.95961 173 ft 4 kts 227°
2026-04-23 17:31 60.31201 24.95922 173 ft 0 kts 227°
2026-04-23 17:35 60.31205 24.95900 173 ft 3 kts 294°
2026-04-23 17:36 60.31228 24.95779 173 ft 11 kts 265°
2026-04-23 17:36 60.31180 24.95640 173 ft 14 kts 228°
2026-04-23 17:36 60.31105 24.95512 173 ft 15 kts 223°
2026-04-23 17:36 60.31028 24.95344 173 ft 16 kts 227°
2026-04-23 17:37 60.31017 24.95172 174 ft 13 kts 307°
2026-04-23 17:37 60.31080 24.95047 175 ft 13 kts 321°
2026-04-23 17:37 60.31088 24.95036 175 ft 0 kts 324°
2026-04-23 17:38 60.31088 24.95035 175 ft 1 kts 324°
2026-04-23 17:38 60.31124 24.94989 173 ft 13 kts 328°
2026-04-23 17:38 60.31210 24.94847 170 ft 18 kts 318°
2026-04-23 17:38 60.31292 24.94684 167 ft 16 kts 301°
2026-04-23 17:39 60.31258 24.94480 165 ft 18 kts 227°
2026-04-23 17:39 60.31170 24.94284 165 ft 20 kts 227°
2026-04-23 17:39 60.31069 24.94064 164 ft 13 kts 227°
2026-04-23 17:39 60.31039 24.93969 165 ft 10 kts 249°
2026-04-23 17:40 60.31062 24.93787 165 ft 17 kts 314°
2026-04-23 17:40 60.31144 24.93697 164 ft 11 kts 20°
2026-04-23 17:40 60.31188 24.93769 165 ft 0 kts 47°
2026-04-23 17:41 60.31364 24.94154 167 ft 68 kts 47°
2026-04-23 17:41 60.31840 24.95206 180 ft 133 kts 47°
2026-04-23 17:42 60.33250 24.98391 1421 ft 152 kts 43°
2026-04-23 17:42 60.34031 25.00075 1881 ft 179 kts 43°
2026-04-23 17:42 60.34952 25.02047 2242 ft 205 kts 43°
2026-04-23 17:43 60.35990 25.04309 2649 ft 232 kts 44°
2026-04-23 17:43 60.37110 25.06786 3405 ft 242 kts 44°
2026-04-23 17:43 60.38238 25.09293 4289 ft 246 kts 44°
2026-04-23 17:43 60.39475 25.11702 5159 ft 248 kts 32°
2026-04-23 17:44 60.41083 25.12851 6096 ft 247 kts
2026-04-23 17:44 60.42809 25.12900 7011 ft 249 kts 355°
2026-04-23 17:44 60.46031 25.10587 9248 ft 246 kts 331°
2026-04-23 17:45 60.47349 25.08338 10263 ft 254 kts 316°
2026-04-23 17:45 60.48288 25.00757 11072 ft 325 kts 265°
2026-04-23 17:45 60.47510 24.96285 11803 ft 344 kts 252°
2026-04-23 17:46 60.45013 24.87653 13447 ft 364 kts 245°
2026-04-23 17:46 60.43636 24.83303 14191 ft 369 kts 245°
2026-04-23 17:46 60.42274 24.78873 14913 ft 373 kts 247°
2026-04-23 17:47 60.40933 24.74327 15658 ft 377 kts 248°
2026-04-23 17:47 60.39615 24.69703 16379 ft 382 kts 249°
2026-04-23 17:47 60.36978 24.60202 17891 ft 392 kts 250°
2026-04-23 17:48 60.35645 24.55366 18593 ft 397 kts 250°
2026-04-23 17:48 60.34289 24.50466 19306 ft 401 kts 250°
2026-04-23 17:48 60.32919 24.45529 20023 ft 405 kts 251°
2026-04-23 17:48 60.31531 24.40544 20714 ft 410 kts 251°
2026-04-23 17:49 60.30122 24.35507 21384 ft 414 kts 251°
2026-04-23 17:49 60.28710 24.30479 22049 ft 419 kts 251°
2026-04-23 17:49 60.27265 24.25346 22750 ft 423 kts 251°
2026-04-23 17:49 60.25806 24.20168 23432 ft 427 kts 251°
2026-04-23 17:50 60.24330 24.14940 23989 ft 432 kts 251°
2026-04-23 17:50 60.21325 24.04333 25038 ft 441 kts 251°
2026-04-23 17:50 60.19792 23.98949 25591 ft 445 kts 251°
2026-04-23 17:51 60.18247 23.93533 26130 ft 449 kts 251°
2026-04-23 17:51 60.16687 23.88074 26659 ft 453 kts 251°
2026-04-23 17:51 60.13512 23.77010 27732 ft 461 kts 251°
2026-04-23 17:52 60.11902 23.71419 28248 ft 465 kts 251°
2026-04-23 17:52 60.08634 23.60107 29186 ft 473 kts 251°
2026-04-23 17:52 60.06973 23.54380 29676 ft 477 kts 251°
2026-04-23 17:53 60.03601 23.42803 30550 ft 484 kts 251°
2026-04-23 17:53 60.01897 23.36978 30972 ft 487 kts 250°
2026-04-23 17:53 60.00202 23.31209 31371 ft 490 kts 248°
2026-04-23 17:54 59.98382 23.25313 31722 ft 495 kts 245°
2026-04-23 17:54 59.96509 23.19507 32016 ft 499 kts 244°
2026-04-23 17:54 59.92808 23.07851 32644 ft 501 kts 245°
2026-04-23 17:55 59.89186 22.95944 33209 ft 502 kts 246°
2026-04-23 17:55 59.87395 22.89964 33511 ft 503 kts 246°
2026-04-23 17:55 59.85608 22.83979 33780 ft 505 kts 246°
2026-04-23 17:56 59.83808 22.77955 34025 ft 507 kts 246°
2026-04-23 17:56 59.80181 22.65871 34456 ft 510 kts 245°
2026-04-23 17:56 59.78973 22.61866 34636 ft 510 kts 245°
2026-04-23 17:57 59.77123 22.55759 34934 ft 509 kts 245°
2026-04-23 17:57 59.75296 22.49746 35227 ft 508 kts 245°
2026-04-23 17:57 59.71644 22.37753 35766 ft 508 kts 244°
2026-04-23 17:58 59.69817 22.31767 36014 ft 507 kts 244°
2026-04-23 17:58 59.67989 22.25795 36265 ft 507 kts 244°
2026-04-23 17:58 59.66159 22.19829 36516 ft 507 kts 244°
2026-04-23 17:58 59.64330 22.13883 36760 ft 506 kts 244°
2026-04-23 17:59 59.62493 22.07927 36991 ft 506 kts 244°
2026-04-23 17:59 59.60681 22.02067 37184 ft 506 kts 244°
2026-04-23 17:59 59.58845 21.96148 37450 ft 504 kts 243°
2026-04-23 17:59 59.57007 21.90236 37709 ft 504 kts 243°
2026-04-23 18:00 59.55175 21.84357 37917 ft 503 kts 243°
2026-04-23 18:00 59.53341 21.78486 38135 ft 503 kts 243°
2026-04-23 18:00 59.51504 21.72620 38320 ft 503 kts 243°
2026-04-23 18:00 59.49665 21.66762 38581 ft 501 kts 243°
2026-04-23 18:01 59.47830 21.60938 38768 ft 500 kts 243°
2026-04-23 18:01 59.45993 21.55116 38872 ft 501 kts 243°
2026-04-23 18:01 59.44149 21.49288 39014 ft 501 kts 242°
2026-04-23 18:01 59.42302 21.43463 39127 ft 502 kts 242°
2026-04-23 18:02 59.40456 21.37660 39263 ft 502 kts 242°
2026-04-23 18:02 59.38624 21.31918 39378 ft 502 kts 242°
2026-04-23 18:02 59.36769 21.26116 39499 ft 502 kts 242°
2026-04-23 18:02 59.34909 21.20316 39627 ft 502 kts 242°
2026-04-23 18:03 59.33045 21.14519 39747 ft 502 kts 242°
2026-04-23 18:03 59.29312 21.02954 39922 ft 502 kts 242°
2026-04-23 18:04 59.25568 20.91416 39967 ft 502 kts 242°
2026-04-23 18:04 59.21818 20.79914 39974 ft 502 kts 241°
2026-04-23 18:05 59.18008 20.68483 39985 ft 505 kts 237°
2026-04-23 18:05 59.13751 20.57573 39984 ft 507 kts 236°
2026-04-23 18:06 59.09377 20.46773 39986 ft 509 kts 235°
2026-04-23 18:06 59.04969 20.35982 39986 ft 510 kts 235°
2026-04-23 18:07 59.00555 20.25197 39991 ft 510 kts 235°
2026-04-23 18:07 58.96138 20.14429 39990 ft 510 kts 235°
2026-04-23 18:08 58.92439 20.05539 39981 ft 511 kts 233°
2026-04-23 18:08 58.87033 19.93434 39991 ft 512 kts 233°
2026-04-23 18:09 58.82383 19.82901 39999 ft 512 kts 231°
2026-04-23 18:09 58.77780 19.72512 39997 ft 513 kts 232°
2026-04-23 18:10 58.73195 19.61987 40000 ft 513 kts 230°
2026-04-23 18:10 58.68514 19.51634 40013 ft 514 kts 227°
2026-04-23 18:11 58.63878 19.41231 40012 ft 510 kts 231°
2026-04-23 18:11 58.59409 19.30662 40013 ft 510 kts 231°
2026-04-23 18:12 58.54915 19.20155 40126 ft 509 kts 237°
2026-04-23 18:12 58.50703 19.09294 40022 ft 506 kts 239°
2026-04-23 18:13 58.46439 18.98570 39976 ft 507 kts 237°
2026-04-23 18:13 58.41988 18.88145 40015 ft 506 kts 235°
2026-04-23 18:14 58.37489 18.77942 40018 ft 506 kts 234°
2026-04-23 18:14 58.32949 18.67724 40023 ft 506 kts 234°
2026-04-23 18:15 58.28400 18.57503 40023 ft 506 kts 234°
2026-04-23 18:15 58.23853 18.47317 40021 ft 505 kts 234°
2026-04-23 18:16 58.19296 18.37148 40024 ft 504 kts 234°
2026-04-23 18:16 58.14753 18.27049 40032 ft 504 kts 234°
2026-04-23 18:17 58.07940 18.11990 40038 ft 504 kts 234°
2026-04-23 18:17 58.03371 18.01946 40019 ft 504 kts 234°
2026-04-23 18:18 57.98802 17.91948 40045 ft 502 kts 234°
2026-04-23 18:18 57.94235 17.81992 40042 ft 502 kts 234°
2026-04-23 18:19 57.89656 17.72051 40042 ft 502 kts 234°
2026-04-23 18:19 57.85072 17.62143 40042 ft 502 kts 234°
2026-04-23 18:20 57.80480 17.52261 40030 ft 502 kts 234°
2026-04-23 18:20 57.75882 17.42413 40048 ft 501 kts 234°
2026-04-23 18:21 57.71283 17.32599 40047 ft 501 kts 234°
2026-04-23 18:21 57.66674 17.22803 40047 ft 501 kts 234°
2026-04-23 18:22 57.62093 17.13107 40052 ft 501 kts 234°
2026-04-23 18:22 57.57473 17.03370 40045 ft 500 kts 233°
2026-04-23 18:23 57.50544 16.88846 40050 ft 500 kts 233°
2026-04-23 18:24 57.44177 16.75575 40057 ft 500 kts 233°
2026-04-23 18:25 57.37225 16.61169 40042 ft 500 kts 233°
2026-04-23 18:25 57.32576 16.51586 40058 ft 500 kts 233°
2026-04-23 18:26 57.27919 16.42026 40064 ft 501 kts 233°
2026-04-23 18:26 57.23244 16.32469 40058 ft 501 kts 233°
2026-04-23 18:27 57.18567 16.22947 40057 ft 501 kts 232°
2026-04-23 18:27 57.13879 16.13441 40059 ft 497 kts 232°
2026-04-23 18:28 57.09266 16.04133 40059 ft 493 kts 232°
2026-04-23 18:28 57.04638 15.94818 40063 ft 493 kts 232°
2026-04-23 18:29 57.00003 15.85526 40061 ft 493 kts 232°
2026-04-23 18:29 56.95364 15.76268 40062 ft 493 kts 232°
2026-04-23 18:30 56.90712 15.67020 40061 ft 492 kts 232°
2026-04-23 18:30 56.86068 15.57827 40069 ft 491 kts 232°
2026-04-23 18:31 56.81447 15.48714 40066 ft 491 kts 232°
2026-04-23 18:31 56.76794 15.39570 40066 ft 492 kts 232°
2026-04-23 18:32 56.72130 15.30442 40043 ft 491 kts 231°
2026-04-23 18:32 56.67477 15.21375 40070 ft 489 kts 231°
2026-04-23 18:33 56.62828 15.12349 40067 ft 488 kts 231°
2026-04-23 18:33 56.58184 15.03364 40064 ft 488 kts 231°
2026-04-23 18:34 56.53526 14.94389 40068 ft 488 kts 231°
2026-04-23 18:34 56.48869 14.85449 40062 ft 488 kts 231°
2026-04-23 18:35 56.44192 14.76504 40071 ft 490 kts 231°
2026-04-23 18:35 56.39490 14.67549 40066 ft 491 kts 231°
2026-04-23 18:36 56.34787 14.58626 40072 ft 491 kts 231°
2026-04-23 18:36 56.30108 14.49784 40075 ft 491 kts 231°
2026-04-23 18:37 56.25391 14.40902 40065 ft 489 kts 230°
2026-04-23 18:37 56.20686 14.32077 40073 ft 488 kts 230°
2026-04-23 18:38 56.15986 14.23293 40080 ft 488 kts 230°
2026-04-23 18:38 56.11276 14.14523 40082 ft 488 kts 230°
2026-04-23 18:39 56.06533 14.05815 40087 ft 488 kts 224°
2026-04-23 18:39 56.01598 13.97432 40084 ft 490 kts 223°
2026-04-23 18:40 55.96601 13.89120 40112 ft 492 kts 227°
2026-04-23 18:40 55.91921 13.80232 40100 ft 489 kts 227°
2026-04-23 18:41 55.88035 13.72895 40099 ft 489 kts 227°
2026-04-23 18:41 55.83293 13.64206 40116 ft 489 kts 217°
2026-04-23 18:41 55.80029 13.58754 40235 ft 484 kts 223°
2026-04-23 18:42 55.78398 13.55912 40148 ft 487 kts 225°
2026-04-23 18:42 55.73715 13.47206 40111 ft 488 kts 227°
2026-04-23 18:43 55.69044 13.38484 40112 ft 487 kts 226°
2026-04-23 18:43 55.64339 13.29948 40115 ft 487 kts 225°
2026-04-23 18:44 55.59541 13.21373 40121 ft 487 kts 225°
2026-04-23 18:44 55.54799 13.12936 40119 ft 487 kts 225°
2026-04-23 18:45 55.50014 13.04447 40117 ft 487 kts 225°
2026-04-23 18:45 55.45223 12.95975 40121 ft 487 kts 225°
2026-04-23 18:46 55.40422 12.87514 40120 ft 487 kts 225°
2026-04-23 18:46 55.35623 12.79078 40116 ft 486 kts 225°
2026-04-23 18:47 55.30875 12.70747 40127 ft 484 kts 224°
2026-04-23 18:47 55.26088 12.62418 40124 ft 484 kts 224°
2026-04-23 18:47 55.23693 12.58268 39978 ft 484 kts 224°
2026-04-23 18:48 55.21293 12.54102 39738 ft 486 kts 225°
2026-04-23 18:48 55.18896 12.49910 39497 ft 488 kts 225°
2026-04-23 18:48 55.16506 12.45708 39260 ft 488 kts 226°
2026-04-23 18:48 55.14110 12.41504 39017 ft 487 kts 226°
2026-04-23 18:49 55.11712 12.37317 38781 ft 487 kts 226°
2026-04-23 18:49 55.09309 12.33143 38506 ft 488 kts 226°
2026-04-23 18:49 55.06893 12.28965 38210 ft 489 kts 226°
2026-04-23 18:49 55.04477 12.24801 37925 ft 490 kts 226°
2026-04-23 18:50 55.02839 12.21982 37748 ft 490 kts 226°
2026-04-23 18:50 54.99611 12.16440 37396 ft 490 kts 226°
2026-04-23 18:50 54.97161 12.12238 37139 ft 499 kts 226°
2026-04-23 18:51 54.92166 12.03646 36985 ft 508 kts 226°
2026-04-23 18:51 54.87126 11.94990 36976 ft 510 kts 226°
2026-04-23 18:52 54.82058 11.86381 36940 ft 505 kts 225°
2026-04-23 18:52 54.79579 11.82214 36354 ft 486 kts 225°
2026-04-23 18:52 54.77176 11.78205 35158 ft 477 kts 225°
2026-04-23 18:52 54.74750 11.74172 34158 ft 485 kts 225°
2026-04-23 18:53 54.72331 11.70139 33577 ft 480 kts 225°
2026-04-23 18:53 54.69937 11.66149 33011 ft 475 kts 225°
2026-04-23 18:53 54.67567 11.62200 32419 ft 471 kts 225°
2026-04-23 18:53 54.65215 11.58284 31834 ft 467 kts 225°
2026-04-23 18:54 54.62887 11.54413 31249 ft 464 kts 225°
2026-04-23 18:54 54.60571 11.50567 30687 ft 460 kts 225°
2026-04-23 18:54 54.58270 11.46752 30091 ft 457 kts 225°
2026-04-23 18:54 54.55985 11.42969 29484 ft 453 kts 225°
2026-04-23 18:55 54.53723 11.39230 28917 ft 448 kts 225°
2026-04-23 18:55 54.51489 11.35544 28370 ft 442 kts 237°
2026-04-23 18:55 54.49525 11.31679 27795 ft 428 kts 243°
2026-04-23 18:55 54.47673 11.27609 27261 ft 426 kts 231°
2026-04-23 18:56 54.46324 11.25175 26915 ft 426 kts 227°
2026-04-23 18:56 54.43577 11.20430 26297 ft 418 kts 232°
2026-04-23 18:56 54.41659 11.16622 25405 ft 425 kts 233°
2026-04-23 18:56 54.39741 11.12707 24593 ft 431 kts 233°
2026-04-23 18:57 54.37785 11.08714 23911 ft 432 kts 234°
2026-04-23 18:57 54.35852 11.04780 23210 ft 431 kts 233°
2026-04-23 18:57 54.33935 11.00889 22317 ft 422 kts 233°
2026-04-23 18:57 54.32049 10.97068 21056 ft 418 kts 233°
2026-04-23 18:58 54.30204 10.93331 19868 ft 415 kts 233°
2026-04-23 18:58 54.28329 10.89540 19175 ft 415 kts 233°
2026-04-23 18:58 54.26456 10.85762 18729 ft 408 kts 233°
2026-04-23 18:58 54.24650 10.82125 18120 ft 405 kts 232°
2026-04-23 18:59 54.22831 10.78464 17473 ft 402 kts 232°
2026-04-23 18:59 54.21016 10.74857 16819 ft 400 kts 231°
2026-04-23 18:59 54.19199 10.71301 16225 ft 395 kts 231°
2026-04-23 18:59 54.17406 10.67774 15673 ft 391 kts 231°
2026-04-23 19:00 54.15643 10.64287 15115 ft 386 kts 231°
2026-04-23 19:00 54.13898 10.60824 14546 ft 382 kts 231°
2026-04-23 19:00 54.12174 10.57402 14002 ft 378 kts 230°
2026-04-23 19:00 54.10447 10.54067 13413 ft 373 kts 229°
2026-04-23 19:01 54.08736 10.50779 12859 ft 367 kts 230°
2026-04-23 19:01 54.07068 10.47540 12315 ft 361 kts 230°
2026-04-23 19:01 54.05436 10.44346 11923 ft 351 kts 230°
2026-04-23 19:01 54.03874 10.41282 11774 ft 334 kts 230°
2026-04-23 19:02 54.02882 10.39340 11717 ft 323 kts 230°
2026-04-23 19:02 54.00921 10.35676 11465 ft 299 kts 229°
2026-04-23 19:02 53.99552 10.33187 11159 ft 279 kts 229°
2026-04-23 19:02 53.98245 10.30837 10634 ft 270 kts 229°
2026-04-23 19:03 53.96979 10.28524 9995 ft 265 kts 230°
2026-04-23 19:03 53.95763 10.26190 9377 ft 263 kts 234°
2026-04-23 19:03 53.94564 10.23904 8912 ft 263 kts 234°
2026-04-23 19:03 53.93350 10.21602 8603 ft 260 kts 234°
2026-04-23 19:04 53.92146 10.19324 8268 ft 258 kts 234°
2026-04-23 19:04 53.90947 10.17065 7960 ft 256 kts 234°
2026-04-23 19:04 53.89656 10.14961 7575 ft 263 kts 219°
2026-04-23 19:04 53.87925 10.13887 7226 ft 272 kts 189°
2026-04-23 19:05 53.86050 10.14272 6880 ft 275 kts 159°
2026-04-23 19:05 53.84477 10.16040 6525 ft 272 kts 129°
2026-04-23 19:05 53.83563 10.18745 6175 ft 261 kts 102°
2026-04-23 19:05 53.83142 10.21698 5854 ft 256 kts 95°
2026-04-23 19:06 53.82816 10.24651 5504 ft 255 kts 94°
2026-04-23 19:06 53.82504 10.27593 5182 ft 253 kts 94°
2026-04-23 19:06 53.82198 10.30522 4878 ft 251 kts 94°
2026-04-23 19:06 53.81811 10.33405 4508 ft 255 kts 106°
2026-04-23 19:07 53.80775 10.35873 4163 ft 262 kts 137°
2026-04-23 19:07 53.79159 10.37223 3902 ft 260 kts 169°
2026-04-23 19:07 53.77390 10.37152 3546 ft 253 kts 201°
2026-04-23 19:07 53.75939 10.35738 3189 ft 239 kts 232°
2026-04-23 19:08 53.75168 10.33422 3004 ft 221 kts 264°
2026-04-23 19:08 53.74958 10.30869 2993 ft 219 kts 273°
2026-04-23 19:08 53.74862 10.28309 2994 ft 218 kts 274°
2026-04-23 19:08 53.74778 10.25758 2992 ft 213 kts 274°
2026-04-23 19:09 53.74629 10.23361 2994 ft 200 kts 265°
2026-04-23 19:09 53.74091 10.21259 3017 ft 195 kts 244°
2026-04-23 19:09 53.73218 10.19506 3016 ft 195 kts 237°
2026-04-23 19:09 53.72346 10.17766 2869 ft 194 kts 240°
2026-04-23 19:10 53.71500 10.16008 2560 ft 193 kts 240°
2026-04-23 19:10 53.70645 10.14268 2276 ft 191 kts 239°
2026-04-23 19:10 53.69800 10.12554 2016 ft 187 kts 240°
2026-04-23 19:10 53.68981 10.10886 1755 ft 180 kts 240°
2026-04-23 19:11 53.68193 10.09284 1495 ft 175 kts 239°
2026-04-23 19:11 53.67445 10.07768 1288 ft 158 kts 239°
2026-04-23 19:11 53.66780 10.06417 1069 ft 143 kts 238°
2026-04-23 19:11 53.66164 10.05162 873 ft 136 kts 238°
2026-04-23 19:12 53.65773 10.04368 745 ft 129 kts 237°
2026-04-23 19:12 53.65026 10.02851 524 ft 123 kts 239°
2026-04-23 19:12 53.64486 10.01756 373 ft 124 kts 238°
2026-04-23 19:12 53.63922 10.00614 182 ft 127 kts 233°
2026-04-23 19:13 53.63365 9.99505 50 ft 118 kts 236°
2026-04-23 19:13 53.62924 9.98591 51 ft 85 kts 230°
2026-04-23 19:13 53.62612 9.97967 50 ft 54 kts 230°
2026-04-23 19:13 53.62468 9.97811 48 ft 15 kts 157°
2026-04-23 19:14 53.62433 9.97946 50 ft 14 kts 84°
2026-04-23 19:14 53.62468 9.98104 50 ft 16 kts 54°
2026-04-23 19:14 53.62544 9.98258 51 ft 19 kts 49°
2026-04-23 19:14 53.62634 9.98442 50 ft 22 kts 51°
2026-04-23 19:15 53.62740 9.98651 49 ft 25 kts 50°
2026-04-23 19:15 53.62858 9.98890 48 ft 27 kts 51°
2026-04-23 19:15 53.62954 9.99089 48 ft 6 kts 50°
2026-04-23 19:15 53.62989 9.99159 50 ft 10 kts 50°
2026-04-23 19:16 53.63053 9.99293 48 ft 19 kts 54°
2026-04-23 19:16 53.63065 9.99320 53 ft 0 kts 54°
2026-04-23 19:19 53.63174 9.99571 47 ft 16 kts 51°
2026-04-23 19:19 53.63244 9.99706 50 ft 16 kts 45°
2026-04-23 19:20 53.63406 10.00019 49 ft 17 kts 51°
2026-04-23 19:20 53.63388 10.00182 51 ft 17 kts 155°
2026-04-23 19:20 53.63266 10.00208 50 ft 19 kts 176°
2026-04-23 19:20 53.63144 10.00223 57 ft 11 kts 176°
2026-04-23 19:21 53.63074 10.00216 52 ft 9 kts 194°
2026-04-23 19:21 53.62997 10.00147 51 ft 3 kts 202°
2026-04-23 19:21 53.62979 10.00151 51 ft 3 kts 160°
2026-04-23 19:22 53.62955 10.00211 53 ft 5 kts 122°
2026-04-23 19:22 53.62940 10.00252 49 ft 2 kts 121°
2026-04-23 19:22 53.62935 10.00263 49 ft 0 kts 121°
2026-04-23 19:23 53.62934 10.00267 49 ft 2 kts 121°
2026-04-23 19:23 53.62934 10.00268 49 ft 0 kts 121°